Weather in Tokyo

Japan     35°40′56″N   139°45′11″E
temp.,
°C
wind,
m/s
gust,
m/s
humid.,
%
clouds,
%
prec.,
mm/h
press.,
hPa
HPBL,
m
17 may, mon
mon1700:00+21ssw71393100 0.2 1008591
03:00+21ssw71390100 0.2 1006589
06:00+22ssw101884100 0.0 1004954
09:00+23ssw111781100 0.0 1003730
12:00+25ssw121775100 0.0 1003625
15:00+25ssw131773100 0.0 1001523
18:00+24ssw121778100 0.0 1001541
21:00+24ssw81278100 0.0 1003422
18 may, tue
tue1800:00+23sw468277 0.0 1003233
03:00+23w2479100 0.0 1004114
06:00+22ene458242 0.0 1007339
09:00+21ene6774100 0.1 1010724
12:00+20ene5776100 0.7 1011808
15:00+20ene5673100 0.8 1011755
18:00+19ene5678100 0.1 1012617
21:00+18ene4580100 0.4 1014508
19 may, wed
wed1900:00+18ne3383100 0.4 1013433
03:00+18ne3383100 0.4 1013391
06:00+18ne2282100 0.1 1013378
09:00+18ne1179100 0.1 1013389
12:00+19ene1176100 0.1 1013404
15:00+19sse3380100 0.6 1012396
18:00+20s2279100 0.0 1013473
21:00+19se1182100 0.0 1015179
20 may, thu
thu2000:00+19ene2283100 0.0 1015149
03:00+19ne2285100 0.0 101574
06:00+19ene3483100 0.0 1017226
09:00+23ene3361100 0.0 1018917
12:00+25ese4350100 0.0 10161561
15:00+25ese5554100 0.0 10151304
18:00+22sse5668100 0.0 1016823
21:00+20se5681100 0.3 1016631
21 may, fri
fri2100:00+20sse51090100 0.2 1013655
03:00+21s71390100 0.4 1011780
06:00+22ssw71483100 0.0 10101010
09:00+23ssw81479100 0.0 1009981
12:00+26ssw121761100 0.0 10071234
15:00+27ssw122157100 0.0 10051377
18:00+24ssw122071100 0.0 10041143
21:00+24ssw121870100 0.0 10041024